Temp
14 14 14 14 14 14 14 14 14 14 14 14 14 14 14 14 14 14 14 14 14 14 14 14 14 14 14 14 14 13 13 13 13 13 13 13 13 12 12 12 12 12 12 11 11 11 11 11 11 11 10 10 10 10 10 10 10 10 10 9 9 9 9 9 8 8 8 8 8
14 14 14 14 14 14 14 14 14 14 14 14 14 14 14 14 14 14 14 14 14 14 14 14 14 14 14 14 14 13 13 13 13 13 13 13 13 13 12 12 12 12 12 11 11 11 11 11 11 10 10 10 10 10 10 10 9 9 9 9 9 9 9 8 8 8 8 8 8
14 14 14 14 14 14 14 14 14 14 14 14 14 14 14 14 14 14 14 14 14 14 14 14 14 14 14 14 14 13 13 13 13 13 13 13 13 13 13 12 12 12 12 11 11 11 11 11 10 10 10 10 10 9 9 9 9 9 9 9 9 8 8 8 8 8 8 8 7
14 14 14 14 14 14 14 14 14 14 14 14 14 14 14 14 14 14 14 14 14 14 14 14 14 14 14 14 14 14 13 13 13 13 13 13 13 13 13 13 12 12 12 11 11 11 11 10 10 10 10 10 9 9 9 9 9 9 9 9 8 8 8 8 8 8 8 7 7
14 14 14 14 14 14 14 14 14 14 14 14 14 14 14 14 14 14 14 14 14 14 14 14 14 14 14 14 14 14 14 13 13 13 13 13 13 13 13 13 12 12 12 11 11 11 10 10 10 10 9 9 9 9 9 9 9 8 8 8 8 8 8 7 7 7 7 7 7
14 14 14 14 14 14 14 14 14 14 14 14 14 14 14 14 14 14 14 14 14 14 14 14 14 14 14 14 14 14 14 14 13 13 13 13 13 13 13 13 12 12 12 12 11 11 10 10 10 9 9 9 9 9 9 9 8 8 8 8 8 8 7 7 7 7 7 7 6
14 14 14 14 14 14 14 14 14 14 14 14 14 14 14 14 14 14 14 14 14 14 14 14 14 14 14 14 14 14 14 14 14 13 13 13 13 13 13 13 12 12 12 12 11 11 10 10 9 9 9 9 9 9 8 8 8 8 8 8 8 7 7 7 7 7 6 6 6
14 14 14 14 14 14 14 14 14 13 13 14 14 14 14 14 14 15 15 14 14 14 14 14 14 14 14 14 14 14 14 14 14 13 13 13 13 13 13 12 12 12 12 11 11 11 10 9 9 9 9 9 9 8 8 8 8 8 8 8 7 7 7 7 6 6 6 6 6
14 14 14 14 14 14 14 14 13 13 14 14 14 14 14 14 15 15 15 14 15 15 14 14 14 14 14 14 14 14 14 14 14 13 13 13 13 13 13 12 12 12 11 11 11 10 9 9 9 9 9 9 8 8 8 8 8 8 7 7 7 6 6 6 6 6 6 6 6
14 14 14 14 14 14 14 13 13 13 14 14 14 14 14 14 14 14 14 15 15 15 14 14 14 14 14 14 14 14 14 14 14 13 13 13 13 13 12 12 12 11 11 11 10 9 9 9 9 8 8 8 8 8 8 8 7 7 7 7 6 6 5 5 5 6 6 6 5
14 14 14 14 14 14 14 13 13 13 14 14 14 14 14 14 14 14 14 14 14 14 14 15 15 14 14 14 14 14 14 14 13 13 13 13 13 12 12 12 12 11 11 11 10 9 9 9 8 8 8 8 8 8 8 7 7 7 6 6 6 5 5 5 5 5 5 5 5
14 14 14 14 14 14 14 13 13 14 14 14 14 14 14 14 14 14 14 14 14 14 15 15 14 14 14 14 14 14 14 14 13 13 13 13 13 12 12 12 12 11 11 11 10 10 9 9 9 8 8 8 8 8 7 7 6 6 6 6 6 5 5 4 5 5 5 5 4
14 14 14 14 14 14 14 14 14 14 14 14 14 14 14 14 14 14 14 14 14 14 14 14 14 14 14 14 14 14 14 13 13 13 13 13 13 12 12 12 12 11 11 11 10 10 9 9 9 9 8 8 8 8 7 7 6 6 6 6 5 5 5 4 4 5 5 4 4
14 14 14 14 14 14 14 14 14 14 14 14 14 15 15 15 15 14 14 14 14 14 14 14 14 14 14 14 14 13 13 13 13 13 13 13 12 12 12 12 11 11 11 10 10 10 10 9 9 9 8 8 8 7 7 6 6 6 6 6 5 5 5 4 4 4 4 4 4
14 14 14 14 14 14 14 14 14 14 14 14 15 15 15 15 14 14 14 14 14 14 14 14 14 14 14 13 13 13 13 13 13 13 12 12 12 12 12 12 11 11 11 10 10 10 10 9 9 9 8 8 8 7 7 6 6 5 5 5 5 5 5 4 4 4 4 4 4
14 14 14 14 14 14 14 14 14 14 14 14 15 15 15 14 14 14 14 14 14 14 14 13 13 13 13 13 13 13 13 13 12 12 12 12 12 12 12 11 11 11 11 10 10 10 10 9 9 9 8 8 8 7 7 6 5 5 5 5 5 5 5 4 4 4 4 4 4
15 15 15 14 14 14 14 14 14 14 14 15 15 15 14 14 14 14 14 14 14 14 13 13 13 13 13 13 13 13 13 12 12 12 12 12 12 12 12 11 11 11 11 10 10 9 9 9 9 8 8 8 8 7 7 6 5 5 5 5 5 5 4 4 4 4 4 4 4
15 15 15 15 15 14 14 14 14 15 15 15 14 14 14 14 14 14 14 14 14 14 13 13 13 13 13 13 13 13 12 12 12 12 12 12 12 12 11 11 11 11 10 10 9 9 9 9 8 8 8 8 7 7 6 6 5 5 5 4 4 4 4 4 4 5 4 4 4
15 15 15 15 15 15 15 15 15 15 15 14 14 14 14 14 14 14 14 14 14 14 13 13 13 13 13 13 13 12 12 12 12 12 12 12 11 11 11 11 11 10 10 10 10 9 9 9 8 8 8 8 7 7 6 6 6 5 5 4 4 4 4 4 5 4 4 4 3
15 15 15 15 15 15 15 15 15 15 15 14 14 14 14 14 14 14 14 14 14 14 13 13 13 13 13 13 12 12 12 12 12 12 11 11 11 11 11 11 10 10 10 10 9 9 9 9 8 8 7 7 7 7 7 6 6 6 5 4 4 4 4 5 4 4 4 3 3
15 15 15 15 15 15 15 15 15 15 15 14 14 14 14 14 14 14 14 14 14 14 13 13 13 13 13 12 12 12 12 12 12 11 11 11 11 11 11 10 10 10 10 9 9 9 9 9 8 8 7 7 7 7 7 7 6 6 5 5 4 4 4 4 4 4 3 3 3
15 15 15 15 15 15 15 15 15 15 14 14 14 14 14 14 14 14 14 14 13 13 13 13 13 13 12 12 12 12 12 11 11 11 11 11 11 11 10 10 10 9 9 9 9 9 8 8 8 7 7 7 7 7 7 7 6 6 5 5 4 4 4 4 4 3 3 3 3
15 15 15 15 15 15 15 14 14 14 14 14 14 14 14 14 14 14 13 13 13 13 13 13 13 12 12 12 12 12 11 11 11 11 11 11 11 10 10 10 10 9 9 9 8 8 8 7 7 7 7 7 7 7 7 7 6 6 5 5 4 4 4 4 3 3 3 3 3
15 15 14 14 14 14 14 14 14 14 14 14 14 14 13 13 13 13 13 13 12 12 12 12 12 12 12 12 12 11 11 11 11 11 11 10 10 10 10 10 10 10 9 9 8 8 7 7 7 7 7 7 7 7 7 7 6 6 5 5 4 4 4 3 3 3 3 3 3
15 14 14 14 14 14 14 14 13 13 13 13 13 13 13 13 13 13 13 12 12 12 12 12 12 12 12 11 11 11 11 11 11 11 10 10 10 10 10 10 10 9 9 9 9 8 8 7 7 7 7 7 7 7 7 7 6 6 5 5 4 4 4 3 3 3 3 3 3
14 14 14 14 14 14 14 13 13 13 13 13 13 13 13 13 13 13 13 13 12 12 12 12 12 12 12 11 11 11 11 11 11 10 10 9 9 9 9 9 9 9 9 9 9 8 8 7 7 7 7 7 6 6 6 6 6 5 5 4 4 4 4 3 3 3 3 3 3
14 14 14 14 14 13 13 13 13 13 13 13 13 13 13 13 13 13 13 13 13 12 12 12 12 12 12 11 11 11 11 11 10 10 9 9 8 8 8 8 8 8 9 9 8 8 8 7 7 7 7 7 6 6 6 6 6 5 4 4 4 3 3 3 3 3 3 3 2
14 14 14 14 14 13 13 13 13 13 13 13 13 13 13 13 12 13 13 13 13 12 12 12 12 12 12 11 11 11 11 10 10 9 8 8 7 7 6 7 7 7 8 8 8 8 8 7 7 7 7 7 7 7 6 6 6 5 4 4 3 3 3 3 3 3 3 2 2
14 14 14 14 14 13 13 13 13 13 13 13 13 13 13 12 12 12 12 12 12 12 12 12 12 12 11 11 11 11 10 10 10 9 8 7 7 6 6 6 6 7 7 8 8 7 7 7 7 7 7 7 7 7 6 6 5 5 4 3 3 3 3 3 3 3 2 2 2
14 14 14 14 14 13 13 13 13 13 13 13 13 12 12 12 12 11 11 11 11 11 11 11 11 11 11 11 11 10 10 10 10 9 8 7 7 7 7 7 7 7 7 7 7 7 7 7 7 7 7 7 6 6 6 6 5 4 4 3 3 3 3 3 2 2 2 2 2
14 14 14 14 14 13 13 13 13 13 13 12 12 12 11 11 11 11 10 10 9 9 9 9 10 10 11 11 10 10 10 10 10 9 9 8 8 7 7 7 7 7 7 7 7 7 7 7 7 7 7 6 6 6 5 5 5 4 3 3 3 2 2 2 2 2 2 2 2
14 14 14 14 14 13 13 13 13 12 12 12 12 11 11 10 10 10 9 9 8 8 8 8 8 9 10 10 10 10 10 9 9 9 9 8 7 7 7 7 6 6 7 7 7 7 7 7 7 6 6 6 6 5 5 4 4 3 3 3 2 2 2 2 2 2 2 1 1
15 15 14 14 14 13 13 13 12 12 12 12 11 11 10 10 9 9 9 8 8 8 7 8 8 8 8 9 9 9 9 9 9 9 8 8 7 7 7 6 6 6 7 7 7 7 7 6 6 6 6 6 5 5 4 4 3 3 3 2 2 2 2 2 2 1 1 1 1
15 15 14 14 14 13 13 12 12 12 12 11 11 10 10 9 9 9 8 8 7 8 8 8 8 7 7 8 8 8 8 9 9 8 8 7 7 7 6 6 6 6 6 6 7 6 6 6 6 6 6 5 5 4 4 3 3 3 2 2 2 2 2 2 1 1 1 1 1
15 15 14 14 13 13 13 12 12 12 11 11 11 10 9 9 9 8 8 8 8 8 8 8 8 8 7 7 8 8 8 8 8 8 7 7 7 7 6 6 6 6 6 6 6 6 6 6 6 5 5 5 4 4 4 3 3 2 2 2 2 2 1 1 1 1 1 1 1
15 15 14 14 13 13 13 12 12 12 11 11 10 10 9 8 8 8 8 8 8 8 9 9 8 7 7 7 8 8 8 8 8 7 7 7 7 6 6 6 6 6 6 6 6 6 6 6 5 5 5 4 4 3 3 3 2 2 2 2 2 1 1 1 1 1 1 1 1
15 14 14 14 13 13 13 12 12 12 11 11 10 10 9 8 8 8 9 9 9 9 9 8 8 7 7 7 8 8 8 8 7 7 7 7 7 6 6 6 6 6 6 6 6 6 5 5 5 4 4 4 3 3 3 2 2 2 2 2 1 1 1 1 1 1 1 1 1
14 14 14 13 13 13 13 12 12 12 12 11 10 9 8 8 8 9 9 9 9 9 8 8 7 7 7 7 7 7 7 7 7 7 7 7 7 6 6 6 6 6 6 6 5 5 4 4 4 4 3 3 3 2 2 2 2 2 2 1 1 1 1 1 1 0 0 0 0
14 14 13 13 13 13 12 12 12 12 11 11 10 9 8 9 9 9 9 9 8 8 8 7 7 7 7 7 7 7 7 7 7 7 7 6 6 6 6 6 6 6 5 5 5 4 4 4 3 3 3 3 2 2 2 2 2 2 2 1 1 1 1 1 0 0 0 0 0
13 13 13 13 13 12 12 12 11 11 10 9 8 8 8 9 9 8 8 8 8 7 7 7 7 7 7 7 7 7 7 7 7 7 6 6 6 6 6 6 5 5 5 4 4 4 3 3 3 3 3 2 2 2 2 2 2 2 1 1 1 1 1 0 0 0 0 0 0
13 13 13 13 12 12 11 11 10 9 8 8 8 8 9 9 8 8 7 7 7 7 6 6 7 7 7 7 7 7 7 6 6 6 6 6 6 6 5 5 5 4 4 4 4 3 3 3 3 3 2 2 2 2 2 2 2 1 1 1 1 1 0 0 0 0 0 0 0
Height
1497 1498 1499 1500 1501 1502 1502 1503 1505 1506 1506 1507 1507 1508 1509 1510 1510 1511 1512 1512 1513 1513 1514 1515 1516 1517 1518 1518 1519 1520 1521 1522 1522 1523 1524 1525 1526 1526 1527 1528 1529 1529 1530 1531 1532 1532 1532 1533 1533 1534 1534 1535 1535 1536 1536 1537 1537 1538 1538 1539 1539 1540 1540 1540 1541 1541 1542 1542 1542
1496 1497 1498 1499 1500 1501 1502 1503 1504 1505 1505 1506 1507 1507 1508 1509 1509 1510 1511 1511 1512 1512 1513 1514 1515 1516 1517 1517 1518 1519 1520 1520 1521 1522 1523 1524 1525 1525 1526 1527 1528 1528 1529 1529 1530 1531 1531 1532 1532 1532 1533 1533 1534 1534 1535 1536 1536 1537 1537 1538 1538 1539 1539 1539 1539 1540 1540 1540 1540
1495 1496 1497 1498 1499 1500 1501 1501 1502 1503 1504 1505 1506 1507 1507 1508 1508 1509 1510 1510 1511 1512 1513 1513 1514 1515 1516 1516 1517 1518 1519 1520 1520 1521 1522 1523 1524 1524 1525 1526 1527 1527 1527 1528 1528 1529 1529 1530 1531 1531 1532 1532 1533 1534 1535 1535 1536 1536 1537 1537 1537 1538 1538 1537 1538 1538 1538 1539 1539
1494 1495 1496 1497 1497 1498 1499 1499 1500 1502 1502 1504 1505 1506 1507 1507 1507 1508 1509 1510 1510 1511 1512 1512 1513 1514 1514 1515 1516 1517 1518 1519 1520 1521 1522 1522 1523 1523 1524 1524 1525 1526 1526 1527 1527 1527 1528 1529 1529 1530 1531 1532 1533 1534 1535 1535 1536 1536 1536 1536 1537 1537 1537 1537 1537 1537 1537 1537 1537
1492 1493 1494 1495 1496 1497 1497 1498 1499 1500 1502 1502 1503 1504 1505 1506 1507 1507 1508 1508 1509 1509 1510 1511 1512 1512 1513 1514 1515 1516 1517 1518 1519 1519 1520 1521 1521 1522 1522 1523 1523 1524 1524 1525 1525 1526 1527 1527 1529 1530 1531 1532 1533 1534 1535 1536 1536 1536 1536 1536 1536 1536 1536 1536 1536 1536 1536 1535 1535
1491 1492 1493 1493 1495 1496 1497 1497 1498 1499 1501 1502 1502 1503 1503 1504 1505 1505 1506 1506 1507 1508 1509 1510 1510 1511 1512 1513 1514 1515 1516 1516 1517 1517 1518 1519 1519 1520 1521 1521 1522 1522 1523 1523 1524 1525 1525 1527 1528 1529 1530 1531 1532 1533 1534 1534 1535 1534 1534 1534 1534 1534 1535 1535 1535 1535 1535 1534 1534
1489 1490 1491 1492 1493 1495 1496 1496 1497 1498 1499 1500 1500 1501 1502 1502 1503 1503 1504 1505 1506 1507 1507 1508 1509 1509 1510 1511 1512 1513 1513 1514 1515 1516 1516 1517 1517 1518 1519 1520 1520 1521 1521 1522 1522 1523 1524 1525 1527 1527 1528 1529 1530 1530 1531 1532 1532 1532 1532 1532 1532 1533 1533 1534 1534 1534 1534 1533 1533
1488 1489 1490 1491 1492 1493 1494 1495 1496 1497 1497 1498 1498 1499 1500 1500 1501 1502 1502 1503 1504 1505 1505 1506 1507 1507 1508 1509 1510 1511 1512 1512 1513 1513 1514 1515 1515 1516 1517 1518 1518 1519 1519 1520 1520 1521 1522 1524 1525 1525 1526 1527 1527 1527 1527 1528 1529 1529 1529 1530 1530 1531 1532 1532 1533 1533 1533 1532 1532
1487 1488 1489 1490 1491 1492 1493 1494 1494 1495 1495 1496 1496 1497 1498 1499 1499 1500 1501 1502 1502 1503 1504 1504 1505 1506 1507 1507 1508 1509 1510 1510 1511 1512 1512 1513 1513 1514 1515 1516 1516 1517 1517 1518 1518 1519 1521 1522 1523 1523 1524 1524 1525 1525 1526 1527 1527 1527 1527 1528 1528 1528 1528 1529 1530 1531 1531 1531 1530
1486 1487 1488 1489 1490 1491 1492 1492 1493 1493 1494 1494 1495 1495 1496 1497 1498 1498 1499 1500 1501 1502 1502 1502 1503 1504 1505 1505 1506 1507 1508 1508 1509 1510 1511 1511 1512 1512 1513 1513 1514 1515 1515 1516 1517 1518 1519 1520 1521 1521 1522 1522 1523 1524 1525 1525 1526 1527 1527 1527 1527 1526 1526 1527 1528 1529 1529 1529 1529
1484 1485 1486 1487 1488 1489 1490 1491 1491 1492 1492 1492 1493 1494 1495 1495 1496 1497 1498 1499 1499 1500 1500 1501 1502 1502 1503 1503 1504 1505 1506 1507 1507 1508 1508 1509 1510 1510 1511 1512 1512 1513 1514 1514 1515 1516 1517 1518 1519 1519 1519 1520 1522 1523 1523 1524 1524 1525 1525 1525 1525 1526 1526 1526 1527 1528 1528 1528 1527
1482 1484 1485 1486 1487 1487 1488 1489 1489 1490 1490 1491 1491 1492 1493 1493 1494 1495 1496 1497 1497 1497 1498 1499 1500 1500 1501 1502 1502 1503 1504 1505 1505 1506 1507 1507 1508 1508 1509 1509 1510 1511 1512 1512 1513 1514 1515 1516 1516 1517 1517 1518 1519 1520 1521 1522 1522 1522 1522 1523 1523 1524 1524 1525 1526 1527 1527 1526 1526
1481 1482 1483 1484 1485 1486 1487 1487 1487 1488 1488 1489 1489 1490 1491 1492 1492 1494 1494 1495 1495 1496 1497 1497 1498 1498 1499 1500 1500 1501 1502 1502 1503 1504 1504 1505 1506 1506 1507 1507 1508 1509 1510 1510 1511 1512 1512 1513 1514 1514 1515 1515 1517 1517 1518 1519 1519 1520 1520 1520 1521 1522 1522 1522 1523 1524 1525 1524 1524
1480 1481 1482 1483 1484 1484 1485 1485 1485 1486 1486 1487 1487 1488 1489 1490 1491 1492 1492 1492 1493 1494 1495 1495 1496 1496 1497 1497 1498 1499 1500 1501 1501 1502 1502 1503 1504 1504 1505 1505 1506 1507 1507 1508 1508 1509 1510 1511 1511 1512 1512 1513 1514 1515 1516 1517 1517 1517 1517 1518 1518 1519 1520 1520 1521 1522 1522 1522 1522
1479 1480 1480 1481 1482 1482 1483 1483 1483 1484 1484 1484 1485 1486 1487 1488 1488 1489 1490 1490 1491 1492 1492 1493 1493 1494 1495 1495 1496 1497 1497 1498 1499 1500 1500 1501 1501 1502 1502 1503 1504 1504 1505 1506 1506 1507 1507 1508 1508 1509 1510 1511 1512 1513 1514 1514 1514 1514 1515 1516 1516 1517 1517 1518 1519 1520 1520 1520 1520
1477 1478 1479 1480 1480 1480 1481 1481 1481 1482 1482 1482 1483 1484 1485 1486 1486 1487 1487 1488 1489 1490 1491 1491 1491 1492 1492 1493 1494 1495 1495 1496 1497 1497 1498 1498 1499 1499 1500 1501 1501 1502 1502 1503 1503 1504 1505 1505 1506 1507 1508 1509 1511 1511 1512 1512 1512 1512 1512 1513 1513 1514 1515 1516 1517 1517 1518 1517 1517
1475 1476 1477 1477 1478 1478 1478 1479 1479 1479 1480 1480 1481 1482 1482 1483 1484 1485 1485 1486 1487 1487 1488 1488 1489 1490 1490 1491 1492 1492 1493 1494 1494 1495 1495 1496 1497 1497 1498 1498 1499 1499 1500 1500 1501 1502 1502 1503 1504 1505 1507 1508 1509 1510 1510 1509 1510 1510 1510 1510 1511 1512 1513 1514 1515 1515 1515 1515 1515
1473 1474 1475 1475 1476 1476 1476 1476 1477 1477 1477 1478 1479 1479 1480 1481 1482 1482 1483 1484 1485 1485 1486 1487 1487 1487 1488 1489 1489 1490 1491 1491 1492 1492 1493 1493 1494 1495 1496 1496 1496 1497 1497 1498 1499 1500 1501 1501 1502 1504 1505 1506 1507 1507 1507 1507 1507 1507 1508 1508 1509 1510 1511 1512 1512 1513 1513 1513 1513
1471 1472 1472 1473 1473 1473 1474 1474 1475 1475 1475 1476 1477 1478 1478 1479 1480 1480 1481 1482 1482 1483 1484 1484 1485 1486 1486 1487 1487 1488 1488 1489 1489 1490 1491 1491 1492 1493 1493 1494 1494 1495 1495 1496 1496 1497 1498 1499 1501 1502 1503 1504 1505 1505 1504 1504 1504 1505 1506 1507 1507 1508 1509 1510 1510 1511 1511 1512 1512
1468 1469 1470 1471 1471 1472 1472 1472 1473 1473 1474 1475 1475 1476 1477 1477 1477 1478 1479 1479 1480 1481 1482 1482 1483 1483 1484 1484 1485 1486 1486 1487 1487 1488 1489 1489 1490 1491 1491 1492 1492 1492 1493 1493 1494 1494 1495 1497 1498 1500 1501 1502 1502 1503 1502 1502 1502 1502 1503 1504 1505 1506 1507 1507 1508 1509 1509 1510 1511
1466 1467 1468 1468 1469 1470 1470 1471 1471 1472 1472 1473 1474 1474 1475 1475 1476 1476 1476 1477 1478 1479 1480 1480 1481 1481 1482 1482 1483 1483 1484 1485 1485 1486 1487 1487 1488 1488 1489 1489 1490 1490 1491 1491 1492 1492 1493 1494 1495 1497 1498 1500 1500 1501 1500 1500 1500 1500 1501 1501 1502 1503 1504 1505 1506 1507 1507 1508 1509
1464 1465 1466 1467 1467 1468 1468 1469 1470 1470 1471 1472 1472 1472 1473 1473 1473 1474 1474 1475 1476 1477 1477 1477 1478 1479 1480 1480 1481 1482 1482 1483 1483 1484 1484 1485 1486 1486 1487 1487 1488 1488 1489 1489 1490 1491 1492 1493 1494 1495 1497 1497 1498 1498 1498 1498 1499 1499 1499 1499 1500 1501 1502 1503 1504 1505 1505 1507 1507
1462 1463 1464 1465 1466 1466 1467 1468 1468 1469 1469 1470 1470 1470 1471 1471 1471 1472 1472 1473 1474 1474 1475 1475 1476 1477 1478 1478 1479 1480 1481 1481 1482 1482 1482 1483 1483 1484 1485 1485 1486 1486 1486 1487 1488 1490 1491 1492 1493 1494 1495 1496 1496 1496 1496 1496 1497 1497 1497 1497 1498 1499 1500 1501 1502 1503 1504 1505 1506
1460 1461 1462 1463 1464 1465 1466 1467 1467 1467 1468 1468 1468 1468 1469 1469 1470 1470 1471 1472 1472 1472 1472 1473 1475 1476 1477 1477 1477 1478 1479 1479 1479 1480 1481 1481 1482 1482 1482 1483 1483 1483 1483 1484 1485 1487 1489 1491 1492 1493 1494 1494 1494 1494 1494 1494 1494 1494 1495 1495 1496 1497 1499 1500 1501 1502 1502 1503 1504
1459 1460 1461 1462 1463 1463 1464 1465 1466 1466 1466 1466 1466 1467 1467 1467 1468 1469 1469 1470 1470 1470 1471 1472 1473 1474 1475 1475 1476 1476 1477 1477 1477 1478 1479 1480 1480 1480 1480 1480 1480 1481 1481 1482 1482 1484 1486 1488 1490 1492 1492 1493 1492 1492 1492 1492 1492 1492 1493 1493 1494 1496 1497 1498 1499 1500 1500 1501 1502
1458 1460 1460 1461 1462 1462 1463 1463 1464 1464 1464 1464 1465 1465 1465 1466 1467 1467 1468 1468 1467 1468 1468 1470 1471 1472 1472 1473 1473 1474 1475 1475 1476 1476 1477 1478 1478 1479 1479 1478 1478 1478 1479 1480 1481 1482 1484 1485 1487 1488 1490 1490 1490 1490 1490 1490 1490 1491 1491 1492 1493 1494 1495 1496 1497 1497 1498 1499 1499
1458 1459 1459 1460 1461 1461 1461 1462 1462 1462 1463 1463 1463 1463 1463 1465 1466 1467 1466 1466 1465 1465 1466 1467 1468 1469 1470 1471 1471 1472 1473 1473 1474 1475 1476 1477 1478 1479 1479 1478 1478 1477 1477 1478 1479 1481 1483 1484 1485 1486 1487 1487 1487 1487 1488 1488 1488 1489 1490 1491 1492 1492 1493 1494 1495 1496 1497 1497 1497
1457 1457 1458 1459 1459 1460 1460 1460 1461 1461 1461 1461 1461 1461 1461 1463 1465 1466 1465 1464 1463 1463 1464 1464 1465 1466 1467 1468 1469 1470 1471 1471 1472 1473 1474 1476 1477 1477 1478 1479 1479 1478 1478 1478 1479 1480 1482 1483 1484 1484 1485 1485 1485 1485 1486 1486 1487 1487 1488 1489 1490 1491 1492 1493 1494 1494 1495 1495 1495
1456 1456 1457 1457 1457 1458 1458 1458 1459 1459 1459 1460 1460 1460 1460 1462 1463 1464 1463 1462 1462 1461 1461 1462 1463 1464 1465 1466 1467 1468 1469 1469 1469 1470 1471 1472 1473 1475 1477 1478 1478 1478 1478 1478 1478 1480 1481 1482 1482 1482 1482 1482 1483 1483 1483 1484 1485 1485 1486 1487 1488 1489 1490 1491 1492 1493 1493 1493 1493
1455 1455 1455 1456 1456 1456 1456 1457 1457 1458 1458 1459 1459 1459 1459 1460 1461 1461 1462 1461 1461 1460 1461 1462 1462 1463 1464 1465 1465 1466 1467 1467 1467 1467 1469 1472 1473 1474 1475 1476 1476 1476 1477 1477 1478 1479 1480 1480 1480 1480 1480 1481 1481 1481 1482 1482 1482 1483 1484 1485 1486 1487 1489 1490 1490 1491 1491 1492 1492
1453 1453 1454 1454 1454 1454 1454 1455 1456 1456 1457 1457 1457 1457 1457 1458 1459 1459 1459 1459 1459 1460 1461 1462 1463 1463 1463 1463 1463 1464 1464 1464 1465 1466 1468 1470 1471 1472 1472 1473 1473 1474 1475 1476 1477 1478 1478 1478 1478 1478 1478 1479 1479 1479 1480 1480 1481 1482 1482 1483 1485 1486 1487 1488 1488 1489 1489 1490 1490
1450 1450 1451 1452 1452 1452 1452 1452 1453 1453 1453 1453 1454 1454 1455 1456 1456 1456 1457 1457 1457 1457 1459 1461 1462 1462 1462 1461 1462 1462 1462 1463 1463 1465 1467 1469 1471 1471 1472 1471 1472 1472 1474 1475 1476 1476 1477 1477 1477 1477 1477 1477 1477 1478 1478 1479 1479 1480 1481 1482 1484 1485 1486 1486 1487 1487 1487 1488 1488
1446 1446 1447 1448 1449 1450 1450 1449 1449 1449 1450 1450 1451 1452 1453 1453 1454 1454 1454 1454 1455 1457 1459 1460 1461 1461 1462 1461 1461 1461 1461 1462 1462 1464 1466 1467 1469 1470 1470 1470 1470 1472 1473 1474 1474 1475 1475 1475 1475 1475 1475 1476 1476 1477 1477 1477 1478 1479 1480 1482 1483 1484 1484 1485 1485 1486 1486 1486 1486
1440 1442 1443 1445 1446 1447 1447 1446 1446 1446 1447 1448 1449 1450 1451 1451 1452 1452 1453 1455 1457 1460 1463 1464 1463 1462 1461 1461 1461 1460 1460 1461 1462 1463 1465 1467 1468 1468 1468 1469 1470 1471 1472 1472 1473 1473 1473 1473 1474 1474 1474 1474 1475 1475 1476 1476 1477 1478 1479 1480 1482 1482 1482 1483 1483 1484 1484 1484 1484
1436 1437 1439 1441 1442 1443 1443 1443 1443 1443 1444 1446 1447 1448 1449 1450 1450 1452 1454 1457 1460 1464 1466 1466 1463 1461 1460 1460 1460 1459 1459 1460 1461 1463 1465 1466 1467 1467 1467 1468 1470 1470 1471 1471 1471 1471 1472 1472 1472 1472 1473 1473 1473 1474 1474 1475 1476 1477 1478 1479 1480 1480 1481 1481 1481 1481 1481 1481 1481
1433 1435 1437 1438 1439 1440 1440 1440 1440 1440 1441 1443 1445 1446 1447 1448 1450 1452 1456 1459 1462 1464 1465 1463 1460 1459 1458 1458 1457 1457 1458 1459 1461 1463 1464 1465 1465 1466 1467 1468 1468 1469 1469 1469 1469 1469 1470 1470 1471 1471 1471 1472 1472 1472 1473 1474 1475 1476 1477 1477 1478 1478 1478 1478 1478 1478 1478 1478 1478
1431 1433 1434 1436 1437 1437 1437 1437 1437 1437 1438 1440 1442 1444 1445 1447 1449 1453 1456 1459 1460 1460 1458 1457 1457 1456 1456 1456 1456 1456 1457 1459 1461 1462 1463 1463 1464 1465 1466 1466 1467 1467 1467 1467 1467 1468 1468 1469 1469 1470 1470 1470 1471 1471 1472 1473 1474 1475 1475 1475 1476 1476 1476 1476 1476 1476 1476 1476 1476
1429 1431 1433 1434 1435 1435 1435 1435 1435 1434 1436 1438 1440 1442 1443 1445 1449 1452 1454 1453 1453 1453 1453 1453 1454 1454 1454 1454 1455 1456 1457 1459 1460 1461 1462 1462 1463 1463 1464 1464 1464 1465 1465 1465 1465 1466 1467 1467 1468 1468 1468 1469 1469 1470 1471 1472 1472 1472 1473 1473 1473 1473 1473 1474 1474 1474 1474 1474 1474
1428 1430 1431 1432 1433 1433 1433 1434 1434 1433 1434 1435 1437 1439 1442 1445 1448 1449 1449 1448 1449 1450 1451 1452 1452 1453 1453 1453 1454 1455 1457 1458 1459 1459 1460 1461 1462 1462 1462 1462 1462 1462 1462 1463 1464 1464 1465 1466 1466 1467 1467 1467 1468 1469 1469 1470 1470 1470 1470 1470 1471 1471 1471 1472 1472 1472 1472 1472 1473
1427 1428 1430 1431 1432 1432 1433 1434 1434 1433 1434 1435 1437 1439 1442 1445 1447 1446 1446 1446 1447 1448 1449 1450 1451 1452 1453 1453 1454 1455 1456 1457 1457 1458 1459 1460 1460 1461 1461 1461 1460 1461 1461 1462 1462 1463 1464 1464 1464 1465 1465 1466 1466 1467 1467 1467 1467 1467 1467 1468 1468 1469 1469 1470 1470 1470 1471 1471 1471
1426 1427 1429 1430 1431 1432 1432 1433 1433 1434 1435 1437 1439 1441 1444 1446 1445 1444 1444 1444 1445 1447 1447 1449 1450 1451 1452 1453 1454 1455 1455 1456 1457 1457 1458 1458 1459 1458 1458 1458 1459 1459 1460 1460 1461 1462 1462 1462 1463 1463 1463 1464 1464 1464 1465 1465 1465 1465 1466 1466 1467 1468 1468 1468 1468 1469 1469 1469 1468
Wind_Speed
38 37 37 37 37 36 36 35 35 35 35 36 35 35 35 35 35 34 34 34 34 34 34 35 35 35 35 35 36 36 36 36 36 35 34 34 33 33 32 32 32 32 32 32 32 32 32 32 31 30 30 29 28 27 25 24 23 22 21 20 20 19 18 17 17 17 17 17 17
37 36 36 36 36 36 35 35 35 35 35 35 34 34 34 34 34 34 34 34 34 34 34 34 35 35 35 35 36 36 36 36 36 35 34 34 33 33 32 32 32 33 33 33 33 33 33 33 33 32 31 31 29 28 26 25 24 23 22 22 21 20 19 18 17 18 18 18 18
36 36 35 35 35 35 35 35 35 34 34 34 34 34 34 34 33 33 33 33 33 34 34 34 34 34 35 35 35 35 36 36 35 35 34 34 33 33 33 33 33 33 34 34 34 34 34 34 34 34 33 32 30 28 27 25 24 24 23 22 22 21 20 19 19 19 19 19 19
36 35 35 35 35 35 35 35 34 34 34 34 34 34 34 34 33 33 33 33 33 33 34 34 34 34 34 34 34 34 34 34 34 34 34 34 33 34 34 34 34 35 35 35 35 35 35 35 35 35 34 32 30 28 26 25 25 24 24 23 23 22 22 21 20 20 20 20 19
36 36 35 35 35 35 35 34 34 34 33 33 33 33 33 33 33 33 33 33 33 33 33 33 33 33 33 33 33 33 33 33 33 33 34 34 34 34 35 35 35 36 36 36 36 36 36 36 36 35 34 32 30 28 26 25 25 25 25 24 24 23 23 23 22 22 21 20 20
36 36 36 35 35 35 35 35 34 34 33 33 33 33 33 33 33 33 33 33 32 32 32 33 33 33 32 32 32 32 32 32 33 33 34 34 35 35 36 36 37 37 37 37 37 37 37 37 36 35 34 32 30 28 27 26 26 26 26 25 25 24 24 23 23 23 22 21 20
37 37 36 36 36 36 36 35 35 34 34 33 33 33 32 32 32 32 32 31 31 32 32 32 33 33 32 32 32 32 32 32 33 33 34 35 35 36 36 37 37 38 38 38 38 38 38 37 36 35 34 33 31 30 29 29 28 28 27 26 26 25 24 23 23 23 23 22 21
37 37 37 37 36 36 36 36 35 35 34 34 33 32 31 31 31 31 31 31 31 31 32 32 32 32 32 31 31 31 32 32 33 33 34 35 35 36 36 37 38 38 39 39 39 39 38 37 36 35 34 33 33 32 31 31 30 30 28 27 26 25 24 24 25 25 25 24 22
38 38 37 37 37 36 36 36 35 35 35 34 33 32 31 31 31 30 31 31 30 30 30 31 31 31 31 31 31 31 31 32 32 33 34 35 35 36 36 37 38 39 39 39 39 39 38 36 35 35 35 34 33 33 32 32 32 31 30 29 29 28 28 27 27 27 27 25 23
38 38 37 37 37 36 36 36 35 35 35 34 33 32 31 31 31 31 30 30 30 30 30 29 29 29 29 30 30 30 30 30 31 32 33 34 35 36 36 37 38 39 40 40 39 38 37 36 36 36 35 35 33 32 32 32 32 32 32 32 32 31 30 29 28 28 27 25 24
37 37 37 37 36 36 36 36 36 35 35 34 33 33 32 32 31 31 30 30 30 30 29 28 28 28 28 28 28 28 29 30 30 31 32 33 34 35 36 37 38 39 40 40 40 39 38 37 37 37 36 35 34 33 32 33 33 34 34 34 34 32 30 28 28 28 28 26 24
36 35 35 35 35 35 35 36 36 35 35 34 34 33 33 32 31 31 30 30 30 30 29 28 28 28 28 28 28 28 29 29 30 31 32 33 34 35 36 37 38 38 39 40 40 39 39 38 38 38 38 36 34 33 33 34 35 36 36 36 35 33 30 28 28 29 28 26 24
35 35 34 35 35 35 35 36 36 36 35 35 34 33 32 32 31 31 31 31 31 30 29 29 29 29 29 29 29 29 29 30 30 31 31 32 33 34 36 37 38 38 39 40 40 40 40 39 39 39 39 37 35 34 33 34 36 37 38 37 36 34 31 28 29 29 28 27 25
34 34 34 34 34 35 35 36 36 36 36 35 34 33 33 32 32 32 32 32 32 31 31 31 31 31 31 31 31 31 31 31 31 31 32 32 33 34 35 36 37 38 39 39 40 40 40 40 40 40 39 38 36 34 34 35 37 38 38 38 36 34 31 29 29 30 29 27 26
35 34 34 34 34 35 36 36 36 36 36 36 34 34 33 33 33 33 33 33 33 33 32 33 33 33 33 33 33 33 32 32 32 32 33 33 33 34 34 35 36 37 37 38 38 38 39 40 41 40 39 37 36 35 35 36 37 38 38 38 37 34 31 29 30 31 30 28 27
36 35 35 35 35 36 36 37 37 37 36 36 35 35 35 35 34 34 34 34 34 34 35 35 35 35 35 35 35 35 34 34 34 34 34 34 34 34 34 35 35 36 36 36 37 37 38 39 40 40 39 37 35 35 34 35 35 37 38 38 37 34 31 30 31 32 31 30 29
37 36 36 36 37 37 38 38 37 37 37 37 37 36 36 36 36 36 36 36 35 36 36 36 36 36 37 37 36 37 36 36 36 36 36 35 35 35 35 35 35 36 36 37 37 37 37 38 38 38 37 36 34 33 32 32 33 35 37 38 37 34 32 31 33 34 34 32 31
38 38 38 38 39 39 39 39 39 39 38 38 38 38 38 38 38 38 37 37 37 37 37 38 38 38 39 39 38 38 38 38 38 38 37 37 36 35 35 35 35 36 37 37 36 36 36 37 37 37 35 33 31 29 29 29 30 33 35 36 36 34 33 33 35 36 35 34 31
40 40 40 40 40 40 40 40 40 40 40 40 40 40 40 40 39 39 39 38 38 38 39 39 39 40 40 40 40 40 40 40 40 39 38 37 37 36 36 36 36 36 36 36 36 36 36 36 36 35 33 31 28 27 26 27 28 30 32 34 34 34 35 36 37 37 36 34 32
42 42 42 42 42 41 41 41 41 41 41 41 41 41 41 41 41 41 41 40 40 40 40 40 41 41 41 41 41 41 41 41 41 40 39 38 37 37 36 36 36 36 36 36 36 35 35 34 34 34 33 30 27 26 26 27 28 30 31 32 34 35 37 38 38 38 36 34 32
44 43 43 43 43 42 42 42 42 42 43 43 43 43 43 43 43 42 42 42 41 41 41 42 42 42 42 42 42 42 42 41 41 41 40 39 38 37 36 36 36 36 36 36 36 35 34 34 34 34 32 29 27 26 27 28 29 30 31 32 34 36 38 39 39 38 37 35 33
45 44 44 44 44 43 43 43 44 44 44 44 44 44 44 44 44 44 43 43 42 43 43 43 43 43 43 43 43 43 42 42 41 41 40 39 38 37 36 35 35 35 35 36 36 35 35 34 34 33 32 29 26 26 28 30 30 31 31 33 35 37 39 40 40 39 38 36 34
45 45 45 45 45 45 45 45 45 45 45 46 46 46 46 46 45 45 44 44 44 44 44 44 43 43 43 43 43 43 42 42 42 41 40 39 38 37 36 35 35 35 35 35 35 35 35 35 34 33 30 28 26 27 29 31 32 32 32 34 36 38 39 40 40 39 38 36 33
46 46 45 45 45 45 45 45 46 46 46 47 47 47 47 46 46 45 45 45 44 45 44 44 43 43 43 43 43 43 43 42 42 41 40 39 38 37 36 36 36 36 35 35 34 33 33 34 33 32 29 27 26 28 29 31 31 31 32 34 36 37 39 39 39 39 37 35 32
47 46 46 46 46 46 46 46 46 47 47 47 48 48 48 47 46 46 45 45 45 45 44 44 43 42 42 42 43 43 43 43 42 41 40 38 38 37 37 37 36 36 36 35 34 33 32 32 31 30 29 28 29 30 31 31 31 31 32 34 35 37 38 39 39 38 36 34 31
46 46 46 46 46 46 46 46 47 47 48 48 48 48 48 48 47 46 46 46 46 46 45 44 43 42 42 42 42 42 43 42 42 41 39 38 38 37 38 37 37 36 36 35 35 34 32 30 29 29 30 32 33 33 32 32 31 32 33 34 36 38 38 39 39 37 36 33 30
45 45 46 46 46 46 46 47 47 47 48 48 49 49 48 48 47 46 46 47 47 46 45 44 43 43 42 42 42 42 42 42 41 40 38 36 35 35 36 37 37 36 36 35 35 33 31 28 27 29 32 34 35 34 34 33 32 32 33 35 37 38 39 38 38 36 34 31 28
44 44 45 45 46 46 46 47 47 47 48 49 49 49 48 47 45 44 46 48 48 47 46 45 44 43 42 41 41 41 41 41 40 38 35 33 32 32 33 34 35 35 35 35 34 32 29 27 28 30 32 34 35 35 34 33 32 32 34 36 38 39 38 38 36 34 32 28 25
41 42 43 44 44 45 46 46 47 47 48 49 50 50 49 47 44 43 44 47 48 48 46 45 44 43 42 41 41 41 41 41 41 38 35 32 30 30 31 32 34 35 35 35 33 30 28 27 30 32 33 34 34 34 34 33 32 32 33 36 37 38 37 36 34 31 28 25 23
36 38 40 41 42 42 43 44 44 45 45 46 47 48 47 46 44 43 43 44 45 44 43 43 43 42 41 41 41 41 41 41 41 40 36 31 30 30 32 33 35 36 36 34 31 28 28 30 32 34 34 34 34 34 33 33 32 32 33 35 36 35 34 32 30 26 24 22 22
36 37 37 38 38 39 39 40 40 40 41 42 43 44 44 43 43 42 41 39 37 36 36 36 37 39 40 41 41 41 41 41 41 40 36 32 30 30 32 33 35 35 35 32 29 28 30 32 34 34 34 33 33 33 33 33 33 33 33 34 34 33 31 28 25 22 21 21 21
45 43 42 40 38 37 37 37 37 37 38 39 40 40 40 40 40 39 37 36 34 32 32 32 34 36 38 39 40 40 41 41 41 39 36 31 29 30 31 33 34 34 33 31 29 30 32 34 34 34 33 33 33 33 33 33 33 33 32 32 31 29 27 24 21 20 20 20 21
49 50 49 46 41 38 36 36 36 36 36 36 36 37 37 37 37 36 35 34 34 32 31 31 31 33 35 36 38 39 40 40 40 38 34 30 29 30 31 31 32 32 31 30 30 32 34 34 34 33 33 33 33 33 33 33 32 32 31 30 28 26 23 21 20 19 19 19 20
49 51 52 49 44 40 38 37 37 36 35 33 33 33 33 34 34 33 31 29 27 26 26 28 30 30 32 34 36 37 38 38 37 33 30 29 29 29 28 29 29 29 29 30 32 33 34 33 33 33 33 33 33 33 33 32 31 30 29 28 26 23 21 20 19 18 19 19 20
49 51 51 49 46 43 41 40 39 38 35 32 31 31 32 33 33 29 24 20 17 17 22 28 32 32 32 35 36 37 37 36 33 30 28 28 28 27 26 27 28 29 30 32 33 34 33 32 32 32 33 33 33 33 32 31 30 29 27 25 23 22 20 20 19 19 20 21 22
51 51 50 48 46 43 42 42 41 40 37 34 31 31 32 31 27 22 17 16 17 20 26 32 34 34 34 36 37 37 36 32 29 27 27 27 26 25 25 27 28 29 31 33 34 33 32 32 32 33 33 33 32 32 30 29 28 27 25 23 22 21 21 20 20 21 22 23 24
51 51 49 47 45 43 43 43 43 41 39 35 33 32 30 24 18 17 20 24 27 32 35 36 35 35 35 36 36 35 32 29 26 26 25 25 24 24 26 28 29 31 32 33 33 32 32 32 33 33 33 32 31 30 29 28 27 25 24 23 23 22 22 22 22 23 24 25 26
49 48 46 45 43 43 43 43 43 41 39 37 36 33 26 19 16 19 25 31 35 37 37 35 34 34 34 35 33 31 28 26 25 25 24 24 25 26 27 29 31 32 32 32 31 32 32 33 33 33 32 31 30 29 28 27 26 25 25 24 24 23 23 23 24 24 26 27 28
46 45 43 42 42 41 42 42 41 40 38 36 33 28 22 17 20 24 28 33 34 34 33 32 31 32 32 31 28 26 24 24 25 25 25 25 26 27 29 30 31 31 31 31 31 32 33 33 33 32 30 29 28 28 27 27 26 26 25 25 25 24 24 25 26 27 28 29 30
43 42 40 40 39 39 39 39 37 35 31 28 24 19 17 19 23 26 28 30 30 30 29 29 29 29 28 26 24 22 22 23 24 25 25 25 27 28 29 29 29 29 30 31 32 33 33 32 31 30 29 28 28 28 28 27 27 26 26 25 25 25 25 27 28 29 30 30 31
39 38 37 37 37 37 36 34 30 26 22 18 15 14 17 22 24 25 26 26 27 27 28 28 28 26 24 22 21 21 22 22 23 23 24 25 26 26 27 27 27 29 30 31 32 32 31 30 30 29 29 29 29 29 29 28 27 26 25 25 26 26 27 28 29 30 31 31 32
Wind_Direction
213 213 214 213 213 214 213 213 212 211 211 211 212 213 215 216 218 219 221 221 221 221 220 220 219 218 218 217 217 218 219 220 221 222 223 224 226 227 229 231 232 234 236 237 239 240 240 241 241 241 241 242 243 244 245 246 246 248 248 248 246 243 241 241 243 243 244 244 245
214 215 215 215 215 215 215 215 215 214 215 215 216 217 219 220 222 223 224 224 224 224 224 223 223 222 221 221 221 221 221 222 223 224 225 226 228 230 231 233 234 236 238 239 240 241 241 242 242 241 242 242 242 242 243 244 245 246 247 247 246 244 242 243 247 248 247 246 246
215 216 216 216 217 217 217 217 217 218 218 219 220 221 222 224 226 227 227 227 227 227 227 227 226 226 226 225 225 225 225 226 227 228 229 229 231 232 233 235 236 238 239 240 242 242 243 243 243 242 242 243 242 242 242 243 245 245 246 247 247 245 244 244 247 248 247 245 245
216 217 217 217 218 218 219 220 221 221 222 222 223 224 225 227 228 230 231 231 230 230 230 230 230 230 230 230 230 230 230 230 231 232 233 234 234 235 236 237 238 239 240 242 243 244 244 244 244 243 243 243 243 242 243 244 245 245 246 247 247 246 245 245 246 245 244 243 244
217 218 219 219 220 221 222 224 224 225 225 226 226 227 228 229 230 232 233 233 233 233 234 234 234 234 234 235 235 235 235 235 236 236 237 238 238 239 239 240 240 241 242 243 244 244 245 244 244 243 243 243 243 243 244 245 246 246 247 247 246 246 245 245 244 244 243 243 244
218 219 220 221 222 223 224 226 228 228 229 229 230 230 230 231 231 232 233 234 235 235 236 236 237 237 238 238 239 239 239 239 240 240 241 241 241 241 242 242 242 243 244 245 245 246 246 245 243 243 243 244 243 244 245 247 247 247 247 246 246 245 245 244 244 244 244 243 243
219 220 221 222 223 224 225 227 229 231 232 232 233 233 233 233 233 233 234 235 236 236 236 237 237 238 239 240 240 241 241 241 242 242 243 243 243 243 243 244 244 245 246 246 247 247 246 244 243 243 243 243 243 243 244 245 246 247 247 247 247 246 245 246 247 247 246 244 243
221 222 223 224 224 225 227 228 230 232 233 234 235 235 235 235 235 235 235 236 236 236 236 236 237 238 239 240 241 241 242 242 242 243 244 244 245 245 246 246 246 247 247 248 248 247 246 244 242 242 242 242 241 241 242 244 245 246 246 245 245 245 247 249 251 249 247 245 244
222 223 224 225 226 227 228 229 231 233 234 235 235 236 236 236 236 237 237 237 237 237 238 238 238 239 240 241 241 242 242 242 243 244 244 245 245 246 247 247 247 247 247 248 247 246 245 243 242 242 242 241 240 241 242 243 244 244 244 244 245 246 248 250 251 249 246 245 245
222 223 224 225 227 228 229 230 232 233 235 236 236 237 237 237 238 238 239 239 239 240 240 240 240 240 241 242 242 242 243 243 243 244 245 245 246 247 247 247 247 247 247 247 246 245 243 243 242 242 242 241 240 241 242 243 243 244 245 246 248 249 250 250 249 246 245 245 246
222 223 224 225 226 228 229 230 232 234 235 236 237 238 238 238 239 239 240 241 241 241 242 242 242 243 243 244 244 244 244 244 244 245 245 246 247 247 248 248 249 249 249 248 247 245 243 243 242 243 242 241 241 241 242 243 243 244 246 249 251 252 253 251 248 245 244 244 246
223 224 224 225 227 228 229 230 232 233 235 236 237 238 239 239 239 240 240 241 242 242 243 244 244 245 245 246 246 246 246 246 246 246 246 247 247 248 248 249 249 249 249 249 249 247 245 244 244 244 244 244 243 242 242 242 243 245 248 251 253 255 254 251 246 244 244 244 245
225 225 226 226 227 228 230 231 232 233 234 236 237 238 238 239 239 240 240 241 242 243 244 244 245 246 247 247 248 248 248 247 247 247 248 248 248 248 249 249 249 249 249 249 249 248 247 246 246 246 246 246 246 245 244 244 244 246 249 252 255 256 255 250 244 242 242 244 244
226 226 227 227 228 229 230 231 232 233 235 236 237 238 238 239 239 239 240 240 241 243 244 245 246 247 248 248 249 249 249 249 249 249 250 250 250 250 250 250 250 250 250 249 249 249 249 248 247 246 246 246 247 249 249 248 248 249 251 254 257 258 257 250 243 240 240 242 243
226 227 227 228 229 230 231 232 233 234 235 236 237 238 238 239 239 239 239 240 241 242 244 245 246 247 248 249 249 250 250 251 251 251 251 251 251 251 251 251 251 251 251 250 250 251 250 249 248 247 246 246 249 252 254 253 251 251 253 255 258 260 258 250 242 239 240 242 243
227 227 228 228 229 230 231 233 234 235 236 237 238 239 239 239 239 239 240 240 241 242 243 245 246 247 248 249 250 250 251 251 251 251 251 251 251 251 251 251 251 251 251 249 249 249 249 249 248 246 245 246 250 256 259 258 255 254 254 256 259 260 258 250 243 239 240 243 245
228 228 228 229 230 231 232 233 234 235 237 238 239 239 240 240 240 241 241 242 242 243 243 245 246 247 248 249 250 250 250 251 251 251 251 251 251 251 251 251 251 251 250 249 247 247 247 247 247 246 245 246 251 259 263 262 258 255 255 257 259 260 257 249 243 240 241 244 248
229 229 229 229 230 231 232 234 235 236 237 239 240 240 241 241 241 242 243 243 243 244 245 246 247 248 248 249 250 250 250 251 251 251 251 251 251 251 251 251 251 250 249 248 248 247 247 247 246 245 244 247 254 263 267 266 261 256 255 256 258 257 253 247 243 242 243 245 251
231 231 230 231 231 232 233 234 236 237 239 240 241 241 242 242 243 244 244 245 245 246 246 247 248 249 249 250 250 251 251 251 251 251 251 251 251 251 251 251 250 249 249 248 249 249 248 247 245 243 243 248 258 268 273 271 265 259 256 255 255 253 249 246 243 243 244 248 255
233 232 232 232 233 234 234 236 237 238 240 241 241 242 243 244 245 246 246 247 247 247 247 248 248 249 250 251 251 251 252 252 252 252 251 251 250 250 250 250 249 249 248 249 249 249 248 246 243 241 242 248 260 271 277 276 270 263 257 253 250 248 247 245 244 244 246 251 259
234 234 234 234 234 235 236 237 238 240 240 241 242 243 244 245 246 247 248 249 249 248 248 248 248 248 249 250 251 251 251 252 251 251 251 250 250 250 250 249 249 248 248 248 249 249 247 245 241 239 240 247 260 273 279 279 274 266 258 251 247 245 245 245 245 246 249 255 263
234 235 236 236 236 237 238 239 239 240 240 241 242 243 244 245 246 247 249 249 249 248 248 248 248 248 249 250 250 251 251 251 251 251 251 250 250 250 249 249 248 247 247 248 249 248 246 243 240 238 239 247 260 273 280 280 276 268 259 251 246 244 244 245 246 248 252 258 265
234 235 237 237 238 239 239 239 239 240 240 241 242 242 243 244 245 246 247 247 247 247 248 248 248 248 248 249 250 250 250 250 250 250 250 250 249 248 248 247 246 245 246 247 248 248 246 242 239 238 241 249 262 274 279 279 276 269 259 252 247 246 246 247 249 252 256 262 267
235 236 237 238 239 239 239 239 239 239 240 241 241 242 242 243 244 244 245 245 245 246 247 247 248 248 248 248 249 249 249 249 249 249 249 248 247 247 246 246 245 245 245 246 246 246 246 244 242 241 245 255 266 274 277 277 273 267 259 253 249 247 248 249 252 255 259 264 267
236 236 237 238 239 239 240 240 239 239 240 241 242 242 242 243 243 243 244 244 244 245 246 246 247 247 247 246 247 247 248 249 249 248 247 245 245 245 245 244 244 244 245 245 245 244 244 244 246 248 252 261 269 273 275 275 272 266 259 253 250 249 249 251 254 257 261 265 266
236 236 237 238 239 240 240 241 241 241 241 242 242 242 243 243 243 244 245 245 245 245 245 246 246 246 246 245 245 246 247 247 247 247 245 243 241 241 241 242 242 242 243 244 244 244 244 246 250 255 260 264 267 270 273 274 271 264 257 252 249 249 249 251 254 259 263 265 265
236 236 237 238 239 240 241 242 242 242 242 242 242 242 242 242 242 244 246 247 246 245 244 245 245 246 245 245 244 244 244 245 245 243 241 238 238 240 241 241 242 242 243 244 244 244 246 250 256 261 263 264 265 268 272 273 270 262 255 250 248 248 250 252 256 260 264 265 263
236 237 238 239 240 241 242 243 243 243 243 243 243 242 239 238 236 239 244 247 246 245 244 243 244 244 244 243 243 243 243 242 240 237 233 232 235 237 238 241 244 246 246 246 245 245 247 254 261 265 265 265 266 268 270 271 268 261 254 249 248 248 251 254 259 263 265 264 261
236 238 239 239 240 241 242 243 243 244 245 245 245 242 238 234 232 234 238 243 244 244 242 242 242 242 241 241 241 241 240 239 236 232 230 235 238 241 243 244 247 250 250 247 244 244 250 260 266 268 268 267 267 267 268 268 266 260 254 250 249 250 253 257 262 264 263 260 257
237 238 239 240 240 241 242 243 244 245 245 244 243 239 236 232 229 229 233 237 240 240 240 240 240 239 238 239 239 239 238 237 235 232 232 237 244 252 256 255 253 251 248 245 242 246 256 265 269 270 269 268 267 267 267 266 264 259 254 251 250 252 255 259 261 261 258 255 255
243 243 243 243 243 243 243 243 244 244 243 242 238 234 230 227 226 226 229 231 233 233 232 232 232 234 236 237 237 237 236 236 234 233 233 237 246 252 256 257 253 249 245 242 243 251 261 266 268 269 269 267 266 266 266 265 262 258 254 251 251 253 256 258 257 254 252 253 256
247 247 247 247 247 245 244 242 241 240 240 239 236 231 226 224 224 225 226 228 228 225 223 222 225 229 232 233 234 234 234 234 233 233 235 242 252 260 262 259 251 244 240 240 247 257 264 267 268 268 267 265 265 265 265 263 260 256 252 251 252 253 254 252 249 248 250 255 261
243 245 246 247 247 246 243 241 238 237 236 236 234 230 226 226 227 228 228 228 227 224 221 222 226 229 229 229 229 230 230 231 232 235 241 252 263 267 263 255 246 240 239 244 254 262 266 267 267 265 264 264 264 265 264 262 258 255 252 251 251 251 248 245 244 247 253 260 266
236 240 242 244 244 244 242 239 237 235 233 233 232 230 230 233 235 234 231 228 226 226 228 233 238 237 232 228 227 227 229 231 234 241 251 263 269 267 258 246 239 238 242 252 261 266 268 266 264 263 263 263 264 264 262 260 257 253 251 250 248 245 241 240 243 249 256 262 266
233 235 238 239 241 241 241 239 236 233 231 231 232 234 238 241 243 239 234 233 236 239 242 246 249 246 237 229 227 228 230 233 239 249 261 269 269 260 247 238 236 240 249 260 266 269 268 265 263 262 262 262 263 262 261 258 255 252 249 246 242 238 236 238 244 249 255 259 262
231 233 235 237 238 239 239 238 236 233 231 232 234 241 246 246 242 240 243 254 257 251 247 247 246 241 234 229 228 229 232 238 247 257 265 268 263 251 240 235 238 246 256 264 267 267 265 262 260 260 261 261 261 260 259 256 253 250 246 240 235 233 235 240 244 249 254 257 259
230 231 233 235 236 238 238 237 235 233 232 234 238 244 246 241 239 250 259 258 250 244 242 242 239 234 229 228 229 232 237 246 256 264 266 264 256 246 239 238 244 253 260 264 263 261 258 257 257 257 258 258 258 257 256 254 250 246 240 234 232 233 237 242 247 251 254 257 259
229 230 232 233 235 237 238 237 235 234 234 237 241 242 239 235 247 255 252 245 240 239 239 238 233 228 226 227 231 237 245 255 265 268 265 260 253 245 241 244 251 258 260 259 256 253 251 251 252 254 255 255 255 254 252 249 245 239 234 231 232 235 240 244 248 251 254 256 259
228 229 230 232 234 236 237 237 235 234 234 235 234 232 231 241 252 249 241 237 236 237 237 233 227 225 225 226 231 240 251 262 268 267 262 256 250 247 247 252 256 258 256 253 249 248 247 248 250 251 252 252 251 250 247 243 238 234 231 231 233 237 241 245 249 251 254 257 260
227 228 229 230 232 234 235 234 232 230 228 224 219 219 232 248 250 244 238 235 234 234 232 228 225 224 225 226 231 241 253 261 263 261 256 251 249 250 253 255 255 253 250 247 246 246 247 248 250 250 250 249 247 245 242 238 234 231 231 233 236 239 243 246 249 252 256 260 264
228 228 229 229 231 231 229 227 223 218 211 206 213 229 244 250 247 240 235 232 229 227 225 223 222 224 226 231 240 249 255 255 252 249 247 247 249 251 251 251 249 247 245 244 245 246 248 249 250 249 248 246 244 241 239 235 233 232 233 236 239 242 245 248 251 255 260 264 268